Time,TemperatureF,DewpointF,PressureIn,WindDirection,WindDirectionDegrees,WindSpeedMPH,WindSpeedGustMPH,Humidity,HourlyPrecipIn,Conditions,Clouds,dailyrainin,SoftwareType,DateUTC
2013-02-19 00:02:00,26.0,24.0,29.47,WNW,287,7.0,15.0,92,0.00,,,0.10,,2013-02-19 06:02:00,
2013-02-19 00:11:00,26.0,24.0,29.47,WNW,287,7.0,15.0,92,0.00,,,0.10,,2013-02-19 06:11:00,
2013-02-19 00:21:00,25.0,23.0,29.49,WSW,253,2.0,9.0,92,0.00,,,0.10,,2013-02-19 06:21:00,
2013-02-19 00:32:00,24.0,22.0,29.49,NNW,342,6.0,12.0,92,0.00,,,0.10,,2013-02-19 06:32:00,
2013-02-19 00:42:00,24.0,22.0,29.49,NNW,342,6.0,12.0,92,0.00,,,0.10,,2013-02-19 06:42:00,
2013-02-19 00:52:00,23.0,21.0,29.49,WNW,284,6.0,13.0,92,0.00,,,0.10,,2013-02-19 06:52:00,
2013-02-19 01:01:00,23.0,21.0,29.50,WSW,254,6.0,12.0,91,0.00,,,0.10,,2013-02-19 07:01:00,
2013-02-19 01:11:00,23.0,21.0,29.50,WSW,254,6.0,12.0,91,0.00,,,0.10,,2013-02-19 07:11:00,
2013-02-19 01:22:00,22.0,20.0,29.50,WNW,291,4.0,12.0,91,0.00,,,0.10,,2013-02-19 07:22:00,
2013-02-19 01:32:00,22.0,20.0,29.50,WNW,284,7.0,16.0,90,0.00,,,0.10,,2013-02-19 07:32:00,
2013-02-19 01:42:00,22.0,20.0,29.50,WNW,284,7.0,16.0,90,0.00,,,0.10,,2013-02-19 07:42:00,
2013-02-19 01:52:00,22.0,20.0,29.51,SW,227,6.0,12.0,90,0.00,,,0.10,,2013-02-19 07:52:00,
2013-02-19 02:02:00,21.0,19.0,29.52,WSW,247,4.0,11.0,90,0.00,,,0.10,,2013-02-19 08:02:00,
2013-02-19 02:11:00,21.0,19.0,29.52,WSW,247,4.0,11.0,90,0.00,,,0.10,,2013-02-19 08:11:00,
2013-02-19 02:21:00,21.0,19.0,29.52,WSW,248,7.0,11.0,90,0.00,,,0.10,,2013-02-19 08:21:00,
2013-02-19 02:31:00,21.0,19.0,29.52,NW,311,7.0,11.0,90,0.00,,,0.10,,2013-02-19 08:31:00,
2013-02-19 02:42:00,21.0,19.0,29.52,NW,311,7.0,11.0,90,0.00,,,0.10,,2013-02-19 08:42:00,
2013-02-19 02:52:00,20.0,18.0,29.53,WNW,290,5.0,9.0,90,0.00,,,0.10,,2013-02-19 08:52:00,
2013-02-19 03:01:00,20.0,18.0,29.53,WNW,299,5.0,11.0,90,0.00,,,0.10,,2013-02-19 09:01:00,
2013-02-19 03:11:00,20.0,18.0,29.53,WNW,299,5.0,11.0,90,0.00,,,0.10,,2013-02-19 09:11:00,
2013-02-19 03:21:00,20.0,18.0,29.53,WNW,288,4.0,11.0,90,0.00,,,0.10,,2013-02-19 09:21:00,
2013-02-19 03:32:00,20.0,18.0,29.54,WNW,290,5.0,11.0,90,0.00,,,0.10,,2013-02-19 09:32:00,
2013-02-19 03:42:00,20.0,18.0,29.54,WNW,290,5.0,11.0,90,0.00,,,0.10,,2013-02-19 09:42:00,
2013-02-19 03:53:00,20.0,18.0,29.54,WSW,256,5.0,12.0,90,0.00,,,0.10,,2013-02-19 09:53:00,
2013-02-19 04:01:00,19.0,17.0,29.55,West,271,6.0,13.0,90,0.00,,,0.10,,2013-02-19 10:01:00,
2013-02-19 04:11:00,19.0,17.0,29.55,West,271,6.0,13.0,90,0.00,,,0.10,,2013-02-19 10:11:00,
2013-02-19 04:21:00,18.0,15.0,29.56,WSW,248,4.0,12.0,88,0.00,,,0.10,,2013-02-19 10:21:00,
2013-02-19 04:31:00,18.0,15.0,29.56,West,279,6.0,10.0,88,0.00,,,0.10,,2013-02-19 10:31:00,
2013-02-19 04:42:00,18.0,15.0,29.56,West,279,6.0,10.0,88,0.00,,,0.10,,2013-02-19 10:42:00,
2013-02-19 04:52:00,18.0,15.0,29.56,WSW,245,4.0,10.0,88,0.00,,,0.10,,2013-02-19 10:52:00,
2013-02-19 05:01:00,18.0,15.0,29.56,WSW,245,4.0,10.0,88,0.00,,,0.10,,2013-02-19 11:01:00,
2013-02-19 05:11:00,18.0,15.0,29.56,WSW,245,4.0,10.0,88,0.00,,,0.10,,2013-02-19 11:11:00,
2013-02-19 05:21:00,18.0,15.0,29.56,WSW,245,4.0,10.0,88,0.00,,,0.10,,2013-02-19 11:21:00,
2013-02-19 08:22:00,12.0,9.0,29.67,WNW,290,7.0,15.0,88,-99.99,,,-99.99,,2013-02-19 14:22:00,
2013-02-19 08:33:00,12.0,9.0,29.68,WSW,257,6.0,13.0,88,-99.99,,,-99.99,,2013-02-19 14:33:00,
2013-02-19 08:42:00,12.0,9.0,29.68,WSW,257,6.0,13.0,88,-99.99,,,-99.99,,2013-02-19 14:42:00,
2013-02-19 08:52:00,12.0,9.0,29.69,WNW,288,6.0,13.0,88,-99.99,,,-99.99,,2013-02-19 14:52:00,
2013-02-19 09:01:00,12.0,9.0,29.70,WNW,296,4.0,13.0,88,-99.99,,,-99.99,,2013-02-19 15:01:00,
2013-02-19 09:11:00,12.0,9.0,29.70,WNW,296,4.0,13.0,88,-99.99,,,-99.99,,2013-02-19 15:11:00,
2013-02-19 09:21:00,12.0,9.0,29.70,SW,232,5.0,10.0,88,0.00,,,-99.99,,2013-02-19 15:21:00,
2013-02-19 09:31:00,11.0,8.0,29.71,WSW,250,7.0,14.0,88,0.00,,,-99.99,,2013-02-19 15:31:00,
2013-02-19 09:42:00,11.0,8.0,29.71,WSW,250,7.0,14.0,88,0.00,,,-99.99,,2013-02-19 15:42:00,
2013-02-19 09:52:00,11.0,8.0,29.72,West,263,9.0,18.0,87,0.00,,,-99.99,,2013-02-19 15:52:00,
2013-02-19 10:01:00,11.0,8.0,29.73,NW,307,4.0,10.0,88,0.00,,,-99.99,,2013-02-19 16:01:00,
2013-02-19 10:11:00,11.0,8.0,29.73,NW,307,4.0,10.0,88,0.00,,,-99.99,,2013-02-19 16:11:00,
2013-02-19 10:21:00,11.0,8.0,29.74,West,261,5.0,12.0,88,0.00,,,-99.99,,2013-02-19 16:21:00,
2013-02-19 10:32:00,11.0,8.0,29.75,WSW,248,6.0,11.0,88,0.00,,,-99.99,,2013-02-19 16:32:00,
2013-02-19 10:41:00,11.0,8.0,29.75,WSW,248,6.0,11.0,88,0.00,,,-99.99,,2013-02-19 16:41:00,
2013-02-19 10:52:00,10.0,7.0,29.75,West,265,8.0,13.0,87,0.00,,,-99.99,,2013-02-19 16:52:00,
2013-02-19 11:01:00,10.0,7.0,29.77,WNW,303,7.0,12.0,87,0.00,,,-99.99,,2013-02-19 17:01:00,
2013-02-19 11:11:00,10.0,7.0,29.77,WNW,303,7.0,12.0,87,0.00,,,-99.99,,2013-02-19 17:11:00,
2013-02-19 11:21:00,11.0,8.0,29.77,West,279,8.0,15.0,86,0.00,,,-99.99,,2013-02-19 17:21:00,
2013-02-19 11:32:00,11.0,8.0,29.78,NNW,336,9.0,16.0,86,0.00,,,-99.99,,2013-02-19 17:32:00,
2013-02-19 11:41:00,11.0,8.0,29.78,NNW,336,9.0,16.0,86,0.00,,,-99.99,,2013-02-19 17:41:00,
2013-02-19 11:52:00,11.0,7.0,29.79,WNW,290,5.0,18.0,85,0.00,,,-99.99,,2013-02-19 17:52:00,
2013-02-19 12:01:00,11.0,7.0,29.80,West,271,7.0,13.0,84,0.00,,,-99.99,,2013-02-19 18:01:00,
2013-02-19 12:11:00,11.0,7.0,29.80,West,271,7.0,13.0,84,0.00,,,-99.99,,2013-02-19 18:11:00,
2013-02-19 12:21:00,11.0,7.0,29.80,West,263,6.0,13.0,83,0.00,,,-99.99,,2013-02-19 18:21:00,
2013-02-19 12:31:00,11.0,7.0,29.80,West,279,6.0,13.0,83,0.00,,,-99.99,,2013-02-19 18:31:00,
2013-02-19 12:41:00,11.0,7.0,29.81,West,277,4.0,14.0,83,0.00,,,-99.99,,2013-02-19 18:41:00,
2013-02-19 12:52:00,11.0,7.0,29.81,West,277,4.0,14.0,83,0.00,,,-99.99,,2013-02-19 18:52:00,
2013-02-19 13:01:00,11.0,7.0,29.82,WNW,299,6.0,13.0,83,0.00,,,-99.99,,2013-02-19 19:01:00,
2013-02-19 13:11:00,11.0,7.0,29.82,WNW,299,6.0,13.0,83,0.00,,,-99.99,,2013-02-19 19:11:00,
2013-02-19 13:21:00,11.0,6.0,29.82,West,279,5.0,14.0,81,0.00,,,-99.99,,2013-02-19 19:21:00,
2013-02-19 13:31:00,11.0,6.0,29.83,NW,304,6.0,14.0,81,0.00,,,-99.99,,2013-02-19 19:31:00,
2013-02-19 13:41:00,11.0,6.0,29.83,NW,304,6.0,14.0,81,0.00,,,-99.99,,2013-02-19 19:41:00,
2013-02-19 13:52:00,11.0,6.0,29.84,West,269,6.0,13.0,78,0.00,,,-99.99,,2013-02-19 19:52:00,
2013-02-19 14:01:00,12.0,6.0,29.84,SW,234,6.0,12.0,77,0.00,,,-99.99,,2013-02-19 20:01:00,
2013-02-19 14:12:00,12.0,6.0,29.84,SW,234,6.0,12.0,77,0.00,,,-99.99,,2013-02-19 20:12:00,
2013-02-19 14:21:00,12.0,6.0,29.85,WSW,238,5.0,11.0,77,0.00,,,-99.99,,2013-02-19 20:21:00,
2013-02-19 14:32:00,12.0,6.0,29.85,West,273,8.0,16.0,75,0.00,,,-99.99,,2013-02-19 20:32:00,
2013-02-19 14:42:00,12.0,6.0,29.85,West,273,8.0,16.0,75,0.00,,,-99.99,,2013-02-19 20:42:00,
2013-02-19 14:52:00,12.0,6.0,29.86,West,265,7.0,12.0,75,0.00,,,-99.99,,2013-02-19 20:52:00,
2013-02-19 15:02:00,12.0,6.0,29.87,West,272,4.0,12.0,75,0.00,,,-99.99,,2013-02-19 21:02:00,
2013-02-19 15:11:00,12.0,6.0,29.87,West,272,4.0,12.0,75,0.00,,,-99.99,,2013-02-19 21:11:00,
2013-02-19 15:21:00,12.0,6.0,29.88,West,277,6.0,11.0,75,0.00,,,-99.99,,2013-02-19 21:21:00,
2013-02-19 15:32:00,11.0,4.0,29.89,SSW,194,7.0,13.0,74,0.00,,,-99.99,,2013-02-19 21:32:00,
2013-02-19 15:42:00,11.0,4.0,29.89,SSW,194,7.0,13.0,74,0.00,,,-99.99,,2013-02-19 21:42:00,
2013-02-19 15:52:00,11.0,4.0,29.90,WNW,283,8.0,13.0,74,0.00,,,-99.99,,2013-02-19 21:52:00,
2013-02-19 16:02:00,11.0,4.0,29.91,West,260,5.0,12.0,73,0.00,,,-99.99,,2013-02-19 22:02:00,
2013-02-19 16:11:00,11.0,4.0,29.91,West,260,5.0,12.0,73,0.00,,,-99.99,,2013-02-19 22:11:00,
2013-02-19 16:21:00,12.0,5.0,29.91,WNW,283,3.0,12.0,73,0.00,,,-99.99,,2013-02-19 22:21:00,
2013-02-19 16:32:00,12.0,5.0,29.92,West,261,5.0,10.0,72,0.00,,,-99.99,,2013-02-19 22:32:00,
2013-02-19 16:41:00,12.0,5.0,29.92,West,261,5.0,10.0,72,0.00,,,-99.99,,2013-02-19 22:41:00,
2013-02-19 16:52:00,11.0,3.0,29.93,NW,305,6.0,13.0,71,0.00,,,-99.99,,2013-02-19 22:52:00,
2013-02-19 17:01:00,11.0,4.0,29.94,WNW,292,4.0,11.0,73,0.00,,,-99.99,,2013-02-19 23:01:00,
2013-02-19 17:11:00,11.0,4.0,29.94,WNW,292,4.0,11.0,73,0.00,,,-99.99,,2013-02-19 23:11:00,
2013-02-19 17:21:00,11.0,4.0,29.95,WNW,302,2.0,10.0,73,0.00,,,-99.99,,2013-02-19 23:21:00,
2013-02-19 17:32:00,10.0,3.0,29.95,NW,304,3.0,9.0,73,0.00,,,-99.99,,2013-02-19 23:32:00,
2013-02-19 17:41:00,10.0,3.0,29.95,NW,304,3.0,9.0,73,0.00,,,-99.99,,2013-02-19 23:41:00,
2013-02-19 17:52:00,10.0,3.0,29.96,NW,321,5.0,10.0,72,0.00,,,-99.99,,2013-02-19 23:52:00,
2013-02-19 18:01:00,10.0,3.0,29.97,West,262,6.0,10.0,72,0.00,,,-99.99,,2013-02-20 00:01:00,
2013-02-19 18:11:00,10.0,3.0,29.97,West,262,6.0,10.0,72,0.00,,,-99.99,,2013-02-20 00:11:00,
2013-02-19 18:21:00,10.0,3.0,29.98,WNW,283,8.0,13.0,71,0.00,,,-99.99,,2013-02-20 00:21:00,
2013-02-19 18:31:00,9.0,2.0,29.99,NW,306,6.0,12.0,71,0.00,,,-99.99,,2013-02-20 00:31:00,
2013-02-19 18:42:00,9.0,2.0,29.99,NW,306,6.0,12.0,71,0.00,,,-99.99,,2013-02-20 00:42:00,
2013-02-19 18:52:00,9.0,2.0,30.00,WNW,289,7.0,14.0,71,0.00,,,-99.99,,2013-02-20 00:52:00,
2013-02-19 19:02:00,9.0,2.0,30.01,NW,325,5.0,14.0,71,0.00,,,-99.99,,2013-02-20 01:02:00,
2013-02-19 19:11:00,9.0,2.0,30.01,NW,325,5.0,14.0,71,0.00,,,-99.99,,2013-02-20 01:11:00,
2013-02-19 19:21:00,9.0,2.0,30.02,West,279,5.0,11.0,71,0.00,,,-99.99,,2013-02-20 01:21:00,
2013-02-19 19:32:00,9.0,2.0,30.03,NW,307,3.0,11.0,71,0.00,,,-99.99,,2013-02-20 01:32:00,
2013-02-19 19:42:00,9.0,2.0,30.03,NW,307,3.0,11.0,71,0.00,,,-99.99,,2013-02-20 01:42:00,
2013-02-19 19:52:00,9.0,1.0,30.03,West,270,6.0,12.0,70,0.00,,,-99.99,,2013-02-20 01:52:00,
2013-02-19 20:01:00,8.0,1.0,30.04,West,277,2.0,9.0,71,0.00,,,-99.99,,2013-02-20 02:01:00,
2013-02-19 20:11:00,8.0,1.0,30.04,West,277,2.0,9.0,71,0.00,,,-99.99,,2013-02-20 02:11:00,
2013-02-19 20:21:00,8.0,1.0,30.04,West,281,4.0,12.0,71,0.00,,,0.00,,2013-02-20 02:21:00,
2013-02-19 20:31:00,8.0,1.0,30.05,NW,311,1.0,11.0,72,0.00,,,0.00,,2013-02-20 02:31:00,
2013-02-19 20:42:00,8.0,1.0,30.05,NW,311,1.0,11.0,72,0.00,,,0.00,,2013-02-20 02:42:00,
2013-02-19 20:52:00,8.0,1.0,30.06,NNW,331,4.0,11.0,71,0.00,,,0.00,,2013-02-20 02:52:00,
2013-02-19 21:01:00,8.0,1.0,30.07,NW,322,4.0,11.0,72,0.00,,,0.00,,2013-02-20 03:01:00,
2013-02-19 21:12:00,8.0,1.0,30.07,NW,322,4.0,11.0,72,0.00,,,0.00,,2013-02-20 03:12:00,
2013-02-19 21:22:00,8.0,1.0,30.07,WNW,302,2.0,8.0,72,0.00,,,0.00,,2013-02-20 03:22:00,
2013-02-19 21:32:00,8.0,1.0,30.08,WNW,291,5.0,9.0,72,0.00,,,0.00,,2013-02-20 03:32:00,
2013-02-19 21:41:00,8.0,1.0,30.08,WNW,291,5.0,9.0,72,0.00,,,0.00,,2013-02-20 03:41:00,
2013-02-19 21:52:00,8.0,1.0,30.09,WNW,291,4.0,9.0,71,0.00,,,0.00,,2013-02-20 03:52:00,
2013-02-19 22:01:00,8.0,1.0,30.09,West,280,4.0,9.0,71,0.00,,,0.00,,2013-02-20 04:01:00,
2013-02-19 22:11:00,8.0,1.0,30.09,West,280,4.0,9.0,71,0.00,,,0.00,,2013-02-20 04:11:00,
2013-02-19 22:21:00,7.0,0.0,30.09,West,275,1.0,7.0,71,0.00,,,0.00,,2013-02-20 04:21:00,
2013-02-19 22:31:00,7.0,0.0,30.09,NW,306,1.0,8.0,71,0.00,,,0.00,,2013-02-20 04:31:00,
2013-02-19 22:41:00,7.0,0.0,30.09,NW,306,1.0,8.0,71,0.00,,,0.00,,2013-02-20 04:41:00,
2013-02-19 22:52:00,7.0,0.0,30.10,West,276,3.0,8.0,72,0.00,,,0.00,,2013-02-20 04:52:00,
2013-02-19 23:02:00,7.0,0.0,30.10,West,265,3.0,10.0,72,0.00,,,0.00,,2013-02-20 05:02:00,
2013-02-19 23:12:00,7.0,0.0,30.10,West,265,3.0,10.0,72,0.00,,,0.00,,2013-02-20 05:12:00,
2013-02-19 23:22:00,7.0,0.0,30.11,WNW,296,2.0,9.0,71,0.00,,,0.00,,2013-02-20 05:22:00,
2013-02-19 23:32:00,7.0,0.0,30.11,West,277,3.0,8.0,71,0.00,,,0.00,,2013-02-20 05:32:00,
2013-02-19 23:43:00,7.0,0.0,30.11,West,277,3.0,8.0,71,0.00,,,0.00,,2013-02-20 05:43:00,
2013-02-19 23:52:00,7.0,0.0,30.11,WSW,253,3.0,10.0,71,0.00,,,0.00,,2013-02-20 05:52:00,